Zurück zum Katalog

NOAA 16 DEB

AktivSSO
NORAD 41161·DEBRIS·🇺🇸 United States

Gestartet Sep 21, 2000 von Vandenberg Space Force Base

Loading…

Nächste Überflüge (nächste 24 Stunden)

TLE

AktuellSource: Space-Track

Epoche: Sep 14, 2026, 08:53 UTC

1 41161U 00055CU  26257.37045073  .00001677  00000-0  77587-3 0  9992
2 41161  98.6722 303.3341 0037292 197.6744 162.3139 14.21809418555623

Verfolge NOAA 16 DEB in Echtzeit mit AllMySat

Download on the App Store